Starlink 11349

operational
NORAD ID: 61544 Int'l Des: 2024-184 Owner: SPXS Country: US Constellation: starlink
LEOCIRCULAR

Starlink 11349について

説明を読み込み中...

リアルタイム位置

3D地球を読み込み中...

次回通過

高度履歴

Altitude vs Time

uPlot chart will show altitude changes over time

軌道要素

1 61544U 24184N 25259.60668252 -.00003760 00000-0 -26212-4 0 9992
2 61544 53.1577 14.5742 0001156 78.7726 281.3422 15.69688520 53070
Epoch: Sep 16, 2025 • Age: 35 hours

現在のステータス

高度 378.6 km
速度 7.68 km/s
衛星直下点 -52.14°S, 83.74°W
打ち上げ日 Oct 15, 2024
運用期間 0.9 years
タイプ internet

技術仕様

分類 Payload
質量 960.00 kg
乾燥質量 910.00 kg
総質量 960.00 kg
長さ 0.30 m
直径 4.10 m
スパン 29.00 m
形状 Box + pan
製造者 SPXS
バスタイプ Starlink V2MD
フェーズステータス In Orbit
所有者/国 SPXS/US

大規模コンステレーション

Loading constellations...